Location: Praha
(50.0830°N, 14.4670°E)
Time: 19:45:20
(UTC+02:00)

ISS - Pass Details

Date: 27 May 2021
Orbit: 417 x 422 km, 51.6° (Epoch: 16 June)

Event Time Altitude Azimuth Distance (km) Brightness Sun altitude
Rises 22:14:09 0° 287° (WNW) 2,368 1.1 -9.7°
Reaches altitude 10° 22:16:16 10° 283° (WNW) 1,502 -0.1 -9.9°
Maximum altitude 22:19:34 54° 205° (SSW) 517 -3.5 -10.2°
Enters shadow 22:22:05 16° 131° (SE) 1,193 -2.1 -10.5°
